Flag for U.S.A. Weather past 2 weeks in Huntington Beach, California, U.S.A.

Now
62 °F

Overcast.


Feels Like: 62 °F
Forecast: 58 / 67 °F
Wind: 3 mph from West

Location: John Wayne Airport-Orange County Airport

Current Time: May 24, 2015 at 12:58:57 AM

Latest Report: May 23, 2015 at 11:53 PM


Visibility: 10 mi

Pressure: 30.02 "Hg

Humidity: 67%

Dew point: 51 °F

Location of Huntington BeachLocation

Historic Weather in Huntington Beach — Graph

°F

Huntington Beach temperature yesterday

Maximum temperature yesterday: 69 °F (at 11:53 AM)
Minimum temperature yesterday: 60 °F (at 2:53 AM)
Average temperature yesterday: 64 °F

Past Weeks' High & Low Weather Summary

 TemperatureHumidityPressure
High71 °F (May 10, 1:53 PM)87% (May 11, 2:53 AM)30.09 "Hg (May 11, 2:53 AM)
Low54 °F (May 10, 4:53 AM)44% (May 21, 12:53 PM)29.81 "Hg (May 11, 6:53 PM)
Average62 °F68%29.97 "Hg
* Reported May 8 11:53 PM — May 23 11:53 PM, Huntington Beach, Weather by CustomWeather, © 2015

Note: Actual official high and low records may vary slightly from our data, if they occured in-between our weather recording intervals... More about our weather records

Advertising

Huntington Beach weather history for previous 24 hours

 ConditionsComfort  
Time TempWeatherWind HumidityBarometerVisibility
11:53 PM
Sat, May 23
62 °FOvercast.3 mph67%30.02 "Hg10 mi
10:53 PM62 °FMostly cloudy.3 mph70%30.03 "Hg10 mi
9:53 PM62 °FMostly cloudy.6 mph73%30.04 "Hg10 mi
8:53 PM62 °FPassing clouds.6 mph73%30.04 "Hg10 mi
7:53 PM63 °FBroken clouds.7 mph70%30.03 "Hg10 mi
6:53 PM64 °FScattered clouds.8 mph68%30.02 "Hg10 mi
5:53 PM66 °FScattered clouds.12 mph61%30.02 "Hg10 mi
4:53 PM67 °FScattered clouds.14 mph55%30.03 "Hg10 mi
3:53 PM68 °FPassing clouds.13 mph53%30.03 "Hg10 mi
2:53 PM68 °FScattered clouds.13 mph53%30.06 "Hg10 mi
1:53 PM68 °FScattered clouds.10 mph51%30.07 "Hg10 mi
12:53 PM68 °FScattered clouds.10 mph51%30.07 "Hg10 mi
11:53 AM69 °FScattered clouds.9 mph51%30.09 "Hg10 mi
10:53 AM66 °FPartly sunny.8 mph59%30.08 "Hg10 mi
10:01 AM64 °FMostly cloudy.6 mph64%30.08 "Hg10 mi
9:02 AM63 °FPartly sunny.6 mph68%30.09 "Hg10 mi
8:53 AM62 °FMostly cloudy.5 mph70%30.09 "Hg10 mi
7:53 AM62 °FPartly sunny.No wind70%30.09 "Hg10 mi
7:00 AM61 °FBroken clouds.3 mph77%30.08 "Hg10 mi
5:53 AM60 °FPassing clouds.3 mph80%30.06 "Hg10 mi
4:53 AM60 °FOvercast.No wind80%30.06 "Hg10 mi
3:53 AM60 °FOvercast.3 mph80%30.06 "Hg10 mi
2:53 AM60 °FClear.No wind78%30.05 "Hg10 mi
1:53 AM61 °FPassing clouds.No wind78%30.06 "Hg10 mi
12:53 AM61 °FPassing clouds.3 mph81%30.06 "Hg10 mi
Weather by CustomWeather, © 2015

See weather overviewHow to use our weather pages